TimeEST,TemperatureF,Dew PointF,Humidity,Sea Level PressureIn,VisibilityMPH,Wind Direction,Wind SpeedMPH,Gust SpeedMPH,PrecipitationIn,Events,Conditions,WindDirDegrees,DateUTC
12:14 AM,25.0,17.6,74,29.99,10.0,NNE,4.6,-,N/A,,Clear,30,2012-12-24 05:14:00
12:34 AM,25.7,17.2,70,29.98,10.0,NNE,4.6,-,N/A,,Clear,30,2012-12-24 05:34:00
12:54 AM,24.8,17.1,72,29.98,10.0,NE,5.8,-,N/A,,Clear,40,2012-12-24 05:54:00
1:14 AM,25.3,17.4,72,29.98,10.0,NE,3.5,-,N/A,,Clear,50,2012-12-24 06:14:00
1:34 AM,24.6,17.4,74,29.99,10.0,ENE,3.5,-,N/A,,Clear,60,2012-12-24 06:34:00
1:54 AM,23.5,17.2,77,29.99,10.0,ENE,3.5,-,N/A,,Clear,60,2012-12-24 06:54:00
2:14 AM,22.8,16.7,77,29.99,10.0,NE,5.8,-,N/A,,Clear,40,2012-12-24 07:14:00
2:34 AM,23.0,16.9,77,29.99,10.0,ENE,5.8,-,N/A,,Clear,60,2012-12-24 07:34:00
2:54 AM,24.4,18.1,77,29.99,10.0,ENE,4.6,-,N/A,,Clear,70,2012-12-24 07:54:00
3:14 AM,24.8,18.5,77,29.98,10.0,ENE,5.8,-,N/A,,Clear,70,2012-12-24 08:14:00
3:34 AM,24.8,18.3,76,29.97,10.0,ENE,5.8,-,N/A,,Clear,70,2012-12-24 08:34:00
3:54 AM,25.0,18.0,75,29.97,10.0,East,4.6,-,N/A,,Clear,80,2012-12-24 08:54:00
4:14 AM,25.2,18.1,75,29.96,10.0,ENE,5.8,-,N/A,,Clear,70,2012-12-24 09:14:00
4:34 AM,25.0,18.1,75,29.95,10.0,ENE,5.8,-,N/A,,Clear,70,2012-12-24 09:34:00
4:54 AM,25.0,18.1,75,29.95,10.0,ENE,5.8,-,N/A,,Clear,70,2012-12-24 09:54:00
5:14 AM,25.2,18.0,74,29.95,10.0,ENE,5.8,-,N/A,,Clear,70,2012-12-24 10:14:00
5:34 AM,25.2,18.3,75,29.93,10.0,East,5.8,-,N/A,,Clear,80,2012-12-24 10:34:00
5:54 AM,25.5,18.5,75,29.94,10.0,ENE,5.8,-,N/A,,Clear,70,2012-12-24 10:54:00
6:14 AM,25.7,18.3,74,29.93,10.0,ENE,6.9,-,N/A,,Clear,70,2012-12-24 11:14:00
6:34 AM,25.5,18.3,74,29.93,10.0,ENE,6.9,-,N/A,,Clear,60,2012-12-24 11:34:00
6:54 AM,25.7,18.5,74,29.94,10.0,ENE,5.8,-,N/A,,Mostly Cloudy,60,2012-12-24 11:54:00
7:14 AM,26.1,18.9,74,29.94,10.0,ENE,5.8,-,N/A,,Overcast,70,2012-12-24 12:14:00
7:34 AM,26.4,19.2,74,29.94,10.0,ENE,8.1,-,N/A,,Overcast,70,2012-12-24 12:34:00
7:54 AM,26.6,19.2,74,29.94,10.0,East,9.2,-,N/A,,Overcast,80,2012-12-24 12:54:00
8:14 AM,26.6,19.4,74,29.93,10.0,East,10.4,-,N/A,,Overcast,80,2012-12-24 13:14:00
8:34 AM,27.0,19.4,73,29.94,10.0,East,8.1,-,N/A,,Overcast,80,2012-12-24 13:34:00
8:54 AM,27.1,19.9,74,29.93,10.0,ENE,8.1,-,N/A,,Overcast,70,2012-12-24 13:54:00
9:14 AM,27.5,20.1,74,29.94,10.0,ENE,6.9,-,N/A,,Overcast,70,2012-12-24 14:14:00
9:34 AM,27.9,20.3,73,29.92,10.0,ENE,8.1,-,N/A,,Overcast,70,2012-12-24 14:34:00
9:54 AM,28.2,20.3,72,29.91,10.0,East,9.2,-,N/A,,Overcast,80,2012-12-24 14:54:00
10:14 AM,28.8,20.8,72,29.92,10.0,East,8.1,-,N/A,,Overcast,80,2012-12-24 15:14:00
10:34 AM,29.3,21.0,71,29.92,10.0,East,8.1,-,N/A,,Overcast,90,2012-12-24 15:34:00
10:54 AM,29.7,21.2,71,29.93,10.0,East,8.1,-,N/A,,Overcast,80,2012-12-24 15:54:00
11:34 AM,29.8,21.2,70,29.95,10.0,Calm,Calm,-,N/A,,Overcast,0,2012-12-24 16:34:00
11:54 AM,30.0,21.4,70,29.91,10.0,ENE,6.9,-,N/A,,Overcast,60,2012-12-24 16:54:00
12:14 PM,29.8,21.2,70,29.88,10.0,ENE,11.5,-,N/A,,Overcast,70,2012-12-24 17:14:00
12:34 PM,30.2,21.2,69,29.86,10.0,ENE,15.0,-,N/A,,Overcast,60,2012-12-24 17:34:00
12:54 PM,30.7,21.6,69,29.87,10.0,NE,9.2,-,N/A,,Overcast,50,2012-12-24 17:54:00
1:14 PM,30.9,21.2,67,29.88,10.0,NNE,5.8,-,N/A,,Overcast,20,2012-12-24 18:14:00
1:34 PM,31.1,21.9,69,29.83,10.0,NE,11.5,-,N/A,,Overcast,40,2012-12-24 18:34:00
1:54 PM,31.1,21.9,69,29.86,10.0,NE,6.9,-,N/A,,Overcast,50,2012-12-24 18:54:00
2:14 PM,31.1,21.7,68,29.84,10.0,NE,10.4,-,N/A,,Overcast,40,2012-12-24 19:14:00
2:34 PM,31.6,22.1,68,29.85,10.0,NE,8.1,-,N/A,,Overcast,40,2012-12-24 19:34:00
2:54 PM,31.3,21.9,68,29.85,10.0,NE,10.4,-,N/A,,Overcast,40,2012-12-24 19:54:00
3:14 PM,31.1,22.1,69,29.85,10.0,NNE,9.2,-,N/A,,Overcast,30,2012-12-24 20:14:00
3:34 PM,31.1,22.1,69,29.85,10.0,NE,8.1,-,N/A,,Overcast,40,2012-12-24 20:34:00
3:54 PM,31.1,22.5,70,29.85,7.0,NNE,12.7,-,N/A,,Overcast,30,2012-12-24 20:54:00
4:14 PM,31.1,23.0,72,29.86,4.0,NE,12.7,-,N/A,,Haze,40,2012-12-24 21:14:00
4:34 PM,30.7,23.2,74,29.87,4.0,NNE,9.2,-,N/A,,Haze,30,2012-12-24 21:34:00
4:54 PM,30.4,23.5,76,29.87,5.0,NNE,9.2,-,N/A,,Haze,30,2012-12-24 21:54:00
5:14 PM,30.2,23.5,76,29.88,4.0,NNE,6.9,-,N/A,,Haze,30,2012-12-24 22:14:00
5:34 PM,30.2,23.5,76,29.88,5.0,NNE,8.1,-,N/A,,Haze,20,2012-12-24 22:34:00
5:54 PM,29.7,23.4,77,29.89,7.0,NNE,9.2,-,N/A,,Overcast,30,2012-12-24 22:54:00
6:14 PM,30.0,23.5,77,29.90,10.0,NNE,5.8,-,N/A,,Overcast,20,2012-12-24 23:14:00
6:34 PM,30.2,23.5,76,29.91,10.0,NNE,5.8,-,N/A,,Overcast,30,2012-12-24 23:34:00
6:54 PM,30.4,23.2,75,29.92,10.0,North,6.9,-,N/A,,Overcast,10,2012-12-24 23:54:00
7:14 PM,30.6,22.8,73,29.93,10.0,North,3.5,-,N/A,,Overcast,10,2012-12-25 00:14:00
7:34 PM,30.6,23.0,74,29.94,10.0,NNE,3.5,-,N/A,,Overcast,20,2012-12-25 00:34:00
7:54 PM,30.6,23.0,74,29.95,10.0,Calm,Calm,-,N/A,,Overcast,0,2012-12-25 00:54:00
8:14 PM,30.7,22.8,72,29.95,10.0,North,3.5,-,N/A,,Overcast,10,2012-12-25 01:14:00
8:34 PM,30.9,22.5,71,29.96,10.0,North,4.6,-,N/A,,Overcast,10,2012-12-25 01:34:00
8:54 PM,30.9,22.1,70,29.97,10.0,North,4.6,-,N/A,,Overcast,350,2012-12-25 01:54:00
9:14 PM,30.7,22.1,70,29.98,10.0,North,4.6,-,N/A,,Overcast,360,2012-12-25 02:14:00
9:34 PM,30.7,21.9,70,29.98,10.0,North,5.8,-,N/A,,Overcast,360,2012-12-25 02:34:00
9:54 PM,30.6,21.9,70,29.98,10.0,North,5.8,-,N/A,,Overcast,350,2012-12-25 02:54:00
10:14 PM,30.2,21.7,71,29.98,10.0,North,6.9,-,N/A,,Overcast,360,2012-12-25 03:14:00
10:34 PM,29.8,21.2,70,29.98,10.0,North,4.6,-,N/A,,Overcast,360,2012-12-25 03:34:00
10:54 PM,28.4,20.3,72,29.99,10.0,North,6.9,-,N/A,,Scattered Clouds,360,2012-12-25 03:54:00
11:14 PM,27.5,19.9,73,30.00,10.0,North,5.8,-,N/A,,Clear,350,2012-12-25 04:14:00
11:34 PM,27.1,19.9,74,30.00,10.0,North,3.5,-,N/A,,Clear,350,2012-12-25 04:34:00
11:54 PM,27.3,19.4,72,30.02,10.0,NNW,3.5,-,N/A,,Clear,340,2012-12-25 04:54:00